Weather History for KSNC - October, 2012

Change the Weather History Date:

Thursday, October 25, 2012

  Actual Average (KHVN) Record (KHVN)
Temperature  
Mean Temperature 56 °F -  
Max Temperature 60 °F 56 °F 82 °F (1989)
Min Temperature 51 °F 41 °F 27 °F (2003)
Degree Days  
Heating Degree Days 10    
Growing Degree Days 6 (Base 50)    
Moisture  
Dew Point 46 °F    
Average Humidity 72    
Maximum Humidity 88    
Minimum Humidity 51    
Precipitation  
Precipitation 0.00 in - - ()
Sea Level Pressure  
Sea Level Pressure 30.26 in    
Wind  
Wind Speed 1 mph (SSE)    
Max Wind Speed 8 mph    
Max Gust Speed -    
Visibility 10 miles    
Events      
Averages and records for this station are not official NWS values.
T = Trace of Precipitation, MM = Missing Value Source: NWS Daily Summary

Daily Weather History Graph

Daily Weather History Graph

Search for Another Location

Airport or City:

Trip Planner

Search our weather history database for the weather conditions in past years. The results will help you decide how hot, cold, wet, or windy it might be!

Date:

Astronomy

Oct. 25, 2012 Rise Set
Actual Time 7:13 AM EDT 5:53 PM EDT
Civil Twilight 6:45 AM EDT 6:21 PM EDT
Nautical Twilight 6:13 AM EDT 6:54 PM EDT
Astronomical Twilight 5:40 AM EDT 7:26 PM EDT
Moon 3:40 PM EDT 3:04 AM EDT
Length of Visible Light 11h 36m
Length of Day
10h 39m
Waxing Gibbous, 84% of the Moon is Illuminated
Oct 25
Waxing Gibbous
Oct 29
Full
Nov 6
Last Quarter
Nov 13
New
Nov 20
First Quarter

Hourly Weather History & Observations

Time (EDT) Temp. Dew Point Humidity Pressure Visibility Wind Dir Wind Speed Gust Speed Precip Events Conditions
12:15 AM 51.8 °F 46.4 °F 82% 30.22 in 10.0 mi Calm Calm - N/A   Overcast
12:35 AM 51.8 °F 46.4 °F 82% 30.22 in 10.0 mi Calm Calm - N/A   Overcast
12:55 AM 51.8 °F 44.6 °F 76% 30.23 in 10.0 mi Calm Calm - N/A   Overcast
1:15 AM 51.8 °F 46.4 °F 82% 30.23 in 10.0 mi Calm Calm - N/A   Mostly Cloudy
1:35 AM 51.8 °F 46.4 °F 82% 30.24 in 10.0 mi Calm Calm - N/A   Overcast
1:55 AM 51.8 °F 46.4 °F 82% 30.24 in 10.0 mi Calm Calm - N/A   Overcast
2:15 AM 51.8 °F 46.4 °F 82% 30.24 in 10.0 mi Calm Calm - N/A   Overcast
2:35 AM 51.8 °F 46.4 °F 82% 30.23 in 10.0 mi Calm Calm - N/A   Overcast
2:55 AM 51.8 °F 46.4 °F 82% 30.23 in 10.0 mi North 3.5 mph - N/A   Overcast
3:15 AM 51.8 °F 46.4 °F 82% 30.23 in 10.0 mi NNW 3.5 mph - N/A   Overcast
3:35 AM 51.8 °F 46.4 °F 82% 30.23 in 10.0 mi Calm Calm - N/A   Overcast
3:55 AM 51.8 °F 44.6 °F 76% 30.23 in 10.0 mi Calm Calm - N/A   Overcast
4:15 AM 51.8 °F 44.6 °F 76% 30.23 in 10.0 mi Calm Calm - N/A   Overcast
4:35 AM 51.8 °F 44.6 °F 76% 30.24 in 10.0 mi Calm Calm - N/A   Overcast
4:55 AM 51.8 °F 46.4 °F 82% 30.24 in 10.0 mi Calm Calm - N/A   Overcast
5:15 AM 51.8 °F 46.4 °F 82% 30.24 in 10.0 mi Calm Calm - N/A   Overcast
5:35 AM 51.8 °F 46.4 °F 82% 30.24 in 10.0 mi Calm Calm - N/A   Overcast
5:55 AM 51.8 °F 46.4 °F 82% 30.25 in 10.0 mi Calm Calm - N/A   Overcast
6:15 AM 51.8 °F 46.4 °F 82% 30.25 in 10.0 mi Calm Calm - N/A   Overcast
6:55 AM 51.8 °F 44.6 °F 76% 30.26 in 10.0 mi Calm Calm - N/A   Overcast
7:15 AM 51.8 °F 44.6 °F 76% 30.27 in 10.0 mi Calm Calm - N/A   Overcast
7:35 AM 51.8 °F 44.6 °F 76% 30.27 in 10.0 mi Calm Calm - N/A   Overcast
7:55 AM 53.6 °F 42.8 °F 67% 30.28 in 10.0 mi Calm Calm - N/A   Overcast
8:15 AM 53.6 °F 41.0 °F 62% 30.28 in 10.0 mi Calm Calm - N/A   Overcast
8:35 AM 53.6 °F 42.8 °F 67% 30.28 in 10.0 mi Calm Calm - N/A   Overcast
9:35 AM 55.4 °F 44.6 °F 67% 30.29 in 10.0 mi Calm Calm - N/A   Overcast
10:15 AM 57.2 °F 44.6 °F 63% 30.30 in 10.0 mi SE 4.6 mph - N/A   Overcast
10:35 AM 59.0 °F 44.6 °F 59% 30.30 in 10.0 mi ENE 4.6 mph - N/A   Overcast
10:55 AM 57.2 °F 44.6 °F 63% 30.30 in 10.0 mi Calm Calm - N/A   Overcast
11:15 AM 60.8 °F 44.6 °F 55% 30.29 in 10.0 mi Calm Calm - N/A   Overcast
11:35 AM 59.0 °F 42.8 °F 55% 30.29 in 10.0 mi ESE 3.5 mph - N/A   Overcast
12:15 PM 59.0 °F 41.0 °F 51% 30.29 in 9.0 mi Calm Calm - N/A   Overcast
12:35 PM 59.0 °F 42.8 °F 55% 30.28 in 10.0 mi Calm Calm - N/A   Overcast
12:55 PM 60.8 °F 42.8 °F 52% 30.28 in 10.0 mi South 3.5 mph - N/A   Overcast
1:15 PM 60.8 °F 44.6 °F 55% 30.28 in 10.0 mi Calm Calm - N/A   Overcast
1:35 PM 60.8 °F 44.6 °F 55% 30.27 in 10.0 mi South 4.6 mph - N/A   Overcast
1:55 PM 60.8 °F 44.6 °F 55% 30.27 in 10.0 mi South 5.8 mph - N/A   Overcast
2:15 PM 60.8 °F 46.4 °F 59% 30.27 in 10.0 mi SSW 6.9 mph - N/A   Mostly Cloudy
2:35 PM 60.8 °F 46.4 °F 59% 30.27 in 10.0 mi South 8.1 mph - N/A   Mostly Cloudy
2:55 PM 60.8 °F 46.4 °F 59% 30.26 in 10.0 mi SSW 8.1 mph - N/A   Mostly Cloudy
3:15 PM 60.8 °F 44.6 °F 55% 30.27 in 10.0 mi South 6.9 mph - N/A   Overcast
3:35 PM 60.8 °F 44.6 °F 55% 30.26 in 10.0 mi South 5.8 mph - N/A   Overcast
3:55 PM 60.8 °F 46.4 °F 59% 30.26 in 10.0 mi South 4.6 mph - N/A   Overcast
4:15 PM 60.8 °F 46.4 °F 59% 30.27 in 10.0 mi SE 4.6 mph - N/A   Overcast
4:35 PM 59.0 °F 48.2 °F 67% 30.27 in 10.0 mi SE 3.5 mph - N/A   Overcast
4:55 PM 57.2 °F 48.2 °F 72% 30.27 in 10.0 mi SE 3.5 mph - N/A   Mostly Cloudy
5:15 PM 57.2 °F 46.4 °F 67% 30.28 in 10.0 mi SSE 3.5 mph - N/A   Mostly Cloudy
5:35 PM 57.2 °F 46.4 °F 67% 30.28 in 10.0 mi SSE 4.6 mph - N/A   Mostly Cloudy
5:55 PM 55.4 °F 46.4 °F 72% 30.28 in 10.0 mi Calm Calm - N/A   Mostly Cloudy
6:15 PM 55.4 °F 46.4 °F 72% 30.28 in 10.0 mi Calm Calm - N/A   Scattered Clouds
6:35 PM 55.4 °F 46.4 °F 72% 30.28 in 10.0 mi Calm Calm - N/A   Mostly Cloudy
6:55 PM 55.4 °F 46.4 °F 72% 30.28 in 10.0 mi Calm Calm - N/A   Overcast
7:15 PM 55.4 °F 46.4 °F 72% 30.28 in 10.0 mi Calm Calm - N/A   Overcast
7:35 PM 55.4 °F 46.4 °F 72% 30.28 in 10.0 mi Calm Calm - N/A   Overcast
7:55 PM 53.6 °F 48.2 °F 82% 30.28 in 10.0 mi Calm Calm - N/A   Overcast
8:15 PM 53.6 °F 48.2 °F 82% 30.28 in 10.0 mi Calm Calm - N/A   Mostly Cloudy
8:35 PM 51.8 °F 48.2 °F 88% 30.27 in 10.0 mi Calm Calm - N/A   Mostly Cloudy
8:55 PM 51.8 °F 48.2 °F 88% 30.27 in 10.0 mi Calm Calm - N/A   Scattered Clouds
9:35 PM 51.8 °F 48.2 °F 88% 30.27 in 10.0 mi Calm Calm - N/A   Overcast
9:55 PM 53.6 °F 48.2 °F 82% 30.27 in 10.0 mi Calm Calm - N/A   Overcast
10:15 PM 53.6 °F 48.2 °F 82% 30.26 in 10.0 mi Calm Calm - N/A   Overcast
10:35 PM 53.6 °F 48.2 °F 82% 30.27 in 10.0 mi Calm Calm - N/A   Overcast
10:55 PM 53.6 °F 48.2 °F 82% 30.26 in 10.0 mi Calm Calm - N/A   Overcast
11:15 PM 53.6 °F 48.2 °F 82% 30.26 in 10.0 mi Calm Calm - N/A   Overcast
11:35 PM 53.6 °F 48.2 °F 82% 30.26 in 10.0 mi Calm Calm - N/A   Overcast